Regional Weather Roundup
Issued by NWS Boston, MA

Home | Current Version | Previous Version | Text Only | Print | Product List | Glossary On
Versions: 1 2 3 4 5 6 7 8 9 10 11 12 13 14 15 16 17 18 19 20 21 22 23 24 25 26 27 28
000
ASUS41 KBOX 232110
RWRBOX

REGIONAL WEATHER ROUNDUP
NATIONAL WEATHER SERVICE TAUNTON MA
500 PM EDT MON OCT 23 2017

NOTE:  "FAIR" INDICATES FEW OR NO CLOUDS BELOW 12,000 FEET WITH NO
SIGNIFICANT WEATHER AND/OR OBSTRUCTIONS TO VISIBILITY.

MAZALL-232200-
EASTERN MASSACHUSETTS

CITY           SKY/WX    TMP DP  RH WIND       PRES   REMARKS
BOSTON         FOG       58  57  97 E6        30.23F VSB 1/4
BEVERLY        CLOUDY    64  59  83 SE5       30.22F
LAWRENCE       CLOUDY    68  58  70 E3        30.24F
BEDFORD        CLOUDY    66  56  70 SE8       30.20F
BLUE HILL        N/A     63  57  81 E6        30.22F
NORWOOD        CLOUDY    67  60  78 N3        30.22F
MARSHFIELD     CLEAR     68  61  77 VRB5      30.22S
PLYMOUTH       PTCLDY    70  61  73 S7        30.23F
TAUNTON        PTCLDY    70  60  70 S9        30.22F
NEW BEDFORD    CLOUDY    68  64  87 S10       30.22F
$$

MAZALL-232200-
CAPE COD AND THE ISLANDS

CITY           SKY/WX    TMP DP  RH WIND       PRES   REMARKS
FALMOUTH       MOCLDY    68  64  88 S12       30.24F
HYANNIS        PTCLDY    68  64  87 S7        30.23F
CHATHAM        MOCLDY    65  63  93 VRB7      30.26F
PROVINCETOWN   PTCLDY    68  63  84 S8        30.24F
NANTUCKET      MOCLDY    64  64 100 SE12      30.25F
MARTHAS VNYRD  MOCLDY    67  64  90 S8        30.24S
$$

MAZALL-232200-
CENTRAL AND WESTERN MASSACHUSETTS

CITY           SKY/WX    TMP DP  RH WIND       PRES   REMARKS
WORCESTER      CLOUDY    67  55  65 S13       30.22F
FITCHBURG      CLOUDY    70  60  70 S7        30.21F
ORANGE         CLOUDY    68  57  68 VRB5      30.18F
SPRINGFIELD    MOCLDY    71  58  62 S8        30.16F
WESTFIELD      CLOUDY    70  59  68 S9        30.16F
NORTH ADAMS    CLOUDY    67  55  65 E9        30.14F
PITTSFIELD     CLOUDY    66  54  65 SE17G23   30.14F
$$

RIZALL-232200-
RHODE ISLAND

CITY           SKY/WX    TMP DP  RH WIND       PRES   REMARKS
PROVIDENCE     CLOUDY    69  65  86 S8        30.22F
NEWPORT        CLOUDY    66  66 100 SE9       30.22F
BLOCK ISLAND   MOCLDY    65  64  97 S9        30.22F
SMITHFIELD     CLOUDY    67  61  81 VRB3      30.22F
WESTERLY       CLOUDY    67  65  93 SE7       30.22F FOG
$$

CTZALL-232200-
CONNECTICUT

CITY           SKY/WX    TMP DP  RH WIND       PRES   REMARKS
BRADLEY INTL   CLOUDY    70  59  68 S10       30.17F
HARTFORD       PTCLDY    71  60  68 S8        30.16F
BRIDGEPORT     PTCLDY    71  62  73 SE8       30.16F
DANBURY        CLOUDY    70  61  73 S7        30.17F
GROTON         CLOUDY    67  64  90 SE8       30.20F
NEW HAVEN      CLOUDY    70  63  78 SE9       30.17F
CHESTER        MOCLDY    70  64  83 SE6       30.19F
MERIDEN        CLOUDY    70  61  73 S9G17     30.16F
WILLIMANTIC    CLOUDY    71  60  68 S10       30.20F
OXFORD         CLOUDY    68  61  78 SE14      30.18F
$$

MEZ002-015-021-024-NHZ003-005-008-011-012-014-VTZ005-008-232200-
NORTHERN NEW ENGLAND

CITY           SKY/WX    TMP DP  RH WIND       PRES   REMARKS
PORTLAND ME    MOCLDY    57  54  89 S7G18     30.26S
BANGOR ME      MOCLDY    61  50  67 S15       30.24S
CONCORD NH     CLEAR     64  56  75 VRB3      30.22F
MANCHESTER NH  CLOUDY    66  57  72 E7        30.20F
NASHUA NH      CLOUDY    66  59  78 SE3       30.21F
PORTSMOUTH NH  CLOUDY    58  56  94 E5        30.22F FOG
JAFFREY NH     CLOUDY    66  59  78 SE5       30.21F
KEENE NH       CLOUDY    66  57  72 CALM      30.18F
BURLINGTON VT  MOCLDY    70  56  61 S15G21    30.08F
MT. WASHINGTON MOCLDY    46  34  61 SW29G43     N/A
$$

NYZ052-076-232200-
EASTERN NEW YORK

CITY           SKY/WX    TMP DP  RH WIND       PRES   REMARKS
ALBANY         CLOUDY    70  58  65 S9        30.10F
NEW YORK CITY  CLOUDY    72  61  68 SE13G20   30.13F
$$

ANZALL-232200-
MARINE OBSERVATIONS

STATION/POSITION TIME  TEMP    WIND        PRES    VSBY  WAVE
                       AIR SEA DIR/SP/G                  HT/PER
                 (UTC) (F)     (DEG/KT/KT) (MB)    (MI)  (FT/S)
BOSTON BUOY      2050   58 59   50/  4/  6 1023.3F         1/11
BUZZARDS BAY     2000   64     150/ 11/ 11 1024.2F
NANTUCKET SOUND  2050   66 63  170/ 12/ 14 1023.8F         1/ 3
MASS BAY-STELLWA 2004   57 58   60/  6/  8 1023.3F         1/ 8
ISLE OF SHOALS   2000   56     120/  3/  3 1024.4F
S OF BLOCK IS    NOT AVBL
$$

......................KEY.........................
  SKY/WX - SKY CONDITION/PRESENT WEATHER
  TMP    - TEMPERATURE IN FAHRENHEIT
  DWPT   - DEWPOINT IN FAHRENHEIT
  RH     - RELATIVE HUMIDITY IN PERCENT
  WIND   - DIRECTION AND SPEED IN MPH
  PRES   - MEAN SEA LEVEL PRESSURE IN INCHES OF HG
  WCI    - WIND CHILL INDEX
  VSB    - VISIBILITY IN MILES
  HX     - HEAT INDEX
  TC     - TEMPERATURE IN CELSIUS
  VRB    - VARIABLE WIND DIRECTION
  N/A    - NOT AVAILABLE




USA.gov is the U.S. government's official web portal to all federal, state and local government web resources and services.